Location: Unspecified
(40.7945°N, 111.1337°W)
Time: 15:21:13
(UTC-06:00)

Vanguard 1 - Pass Details

Date: 27 June 2019
Orbit: 653 x 3830 km, 34.2° (Epoch: 22 October)

Event Time Altitude Azimuth Distance (km) Brightness Sun altitude
Rises 22:50:00 0° 190° (S) 7,584 14.2 -16.2°
Reaches altitude 10° 22:57:10 10° 177° (S) 6,820 13.8 -17.0°
Enters shadow 23:02:21 16° 165° (SSE) 6,364 13.6 -17.6°
Exits shadow 23:09:44 22° 144° (SE) 5,928 13.3 -18.3°
Maximum altitude 23:12:15 22° 136° (SE) 5,852 13.4 -18.6°
Drops below altitude 10° 23:25:54 10° 95° (E) 6,248 13.8 -19.9°
Sets 23:31:47 0° 82° (E) 6,835 14.2 -20.5°
